• In Czech Republic
  • List of Countries
  • For 7 days
  • Water Temperature
  • Satellite Maps
  • Weather Map
  • Weather Widgets
  • user-avatar
    Login

    Hourly Weather Selargius

    Today, 17 July, Tuesday

    Time Temperature Precipitation Wind Pressure Humidity
    00:00 +25°C° 0 mm 5 mps 759 mmHg 81%
    01:00 +25°C° 0 mm 5 mps 759 mmHg 79%
    02:00 +25°C° 0 mm 5 mps 759 mmHg 79%
    03:00 +25°C° 0 mm 5 mps 759 mmHg 79%
    04:00 +24°C° 0 mm 6 mps 759 mmHg 79%
    05:00 +26°C° 0 mm 6 mps 759 mmHg 76%
    06:00 +26°C° 0 mm 6 mps 759 mmHg 74%
    07:00 +27°C° 0 mm 6 mps 759 mmHg 71%
    08:00 +28°C° 0 mm 7 mps 759 mmHg 64%
    09:00 +29°C° 0 mm 7 mps 759 mmHg 57%
    10:00 +32°C° 0 mm 7 mps 760 mmHg 49%
    11:00 +33°C° 0 mm 7 mps 760 mmHg 47%
    12:00 +33°C° 0 mm 7 mps 760 mmHg 45%
    13:00 +34°C° 0 mm 7 mps 760 mmHg 42%
    14:00 +34°C° 0 mm 7 mps 760 mmHg 43%
    15:00 +33°C° 0 mm 7 mps 760 mmHg 44%
    16:00 +33°C° 0 mm 7 mps 759 mmHg 45%
    17:00 +32°C° 0 mm 7 mps 759 mmHg 50%
    18:00 +29°C° 0 mm 6 mps 759 mmHg 55%
    19:00 +28°C° 0 mm 5 mps 759 mmHg 60%
    20:00 +27°C° 0 mm 5 mps 760 mmHg 67%
    21:00 +25°C° 0 mm 4 mps 760 mmHg 75%
    22:00 +24°C° 0 mm 3 mps 760 mmHg 83%
    23:00 +23°C° 0 mm 4 mps 760 mmHg 85%

    Tomorrow, 18 July, Wednesday

    Time Temperature Precipitation Wind Pressure Humidity
    00:00 +22°C° 0 mm 4 mps 760 mmHg 87%
    01:00 +22°C° 0 mm 4 mps 760 mmHg 88%
    02:00 +22°C° 0 mm 3 mps 760 mmHg 87%
    03:00 +21°C° 0 mm 3 mps 760 mmHg 85%
    04:00 +21°C° 0 mm 3 mps 760 mmHg 84%
    05:00 +24°C° 0 mm 3 mps 760 mmHg 77%
    06:00 +25°C° 0 mm 3 mps 760 mmHg 70%
    07:00 +26°C° 0 mm 2 mps 760 mmHg 62%
    08:00 +29°C° 0 mm 2 mps 760 mmHg 54%
    09:00 +31°C° 0 mm 2 mps 760 mmHg 45%
    10:00 +35°C° 0 mm 2 mps 760 mmHg 36%
    11:00 +36°C° 0 mm 2 mps 760 mmHg 33%
    12:00 +37°C° 0 mm 3 mps 760 mmHg 30%
    13:00 +38°C° 0 mm 3 mps 760 mmHg 27%
    14:00 +38°C° 0 mm 3 mps 760 mmHg 29%
    15:00 +37°C° 0 mm 3 mps 759 mmHg 30%
    16:00 +37°C° 0 mm 4 mps 759 mmHg 31%
    17:00 +36°C° 0 mm 3 mps 759 mmHg 36%
    18:00 +34°C° 0 mm 2 mps 759 mmHg 40%
    19:00 +32°C° 0 mm 2 mps 759 mmHg 45%
    20:00 +30°C° 0 mm 2 mps 759 mmHg 50%
    21:00 +29°C° 0 mm 1 mps 759 mmHg 55%
    22:00 +27°C° 0 mm 1 mps 759 mmHg 60%
    23:00 +27°C° 0 mm 1 mps 759 mmHg 60%

    Day after tomorrow, 19 July, Thursday

    Time Temperature Precipitation Wind Pressure Humidity
    00:00 +26°C° 0 mm 1 mps 759 mmHg 59%
    01:00 +26°C° 0 mm 1 mps 759 mmHg 59%
    02:00 +26°C° 0 mm 1 mps 759 mmHg 59%
    03:00 +26°C° 0 mm 1 mps 759 mmHg 59%
    04:00 +26°C° 0 mm 1 mps 759 mmHg 59%
    05:00 +27°C° 0 mm 1 mps 759 mmHg 55%
    06:00 +28°C° 0 mm 1 mps 759 mmHg 51%
    07:00 +29°C° 0 mm 1 mps 759 mmHg 48%
    08:00 +31°C° 0 mm 1 mps 759 mmHg 41%
    09:00 +35°C° 0 mm 2 mps 759 mmHg 34%
    10:00 +37°C° 0 mm 2 mps 759 mmHg 27%
    11:00 +38°C° 0 mm 2 mps 759 mmHg 26%
    12:00 +38°C° 0 mm 3 mps 759 mmHg 25%
    13:00 +39°C° 0 mm 3 mps 759 mmHg 24%
    14:00 +39°C° 0 mm 3 mps 759 mmHg 25%
    15:00 +40°C° 0 mm 4 mps 759 mmHg 26%
    16:00 +38°C° 0 mm 4 mps 759 mmHg 28%
    17:00 +37°C° 0 mm 3 mps 759 mmHg 31%
    18:00 +35°C° 0 mm 3 mps 759 mmHg 34%
    19:00 +34°C° 0 mm 2 mps 759 mmHg 38%
    20:00 +31°C° 0 mm 2 mps 759 mmHg 43%
    21:00 +29°C° 0 mm 2 mps 759 mmHg 48%
    22:00 +27°C° 0 mm 1 mps 759 mmHg 52%
    23:00 +27°C° 0 mm 1 mps 759 mmHg 51%

    20 July, Friday

    Time Temperature Precipitation Wind Pressure Humidity
    00:00 +27°C° 0 mm 1 mps 759 mmHg 51%
    01:00 +27°C° 0 mm 1 mps 759 mmHg 50%
    02:00 +27°C° 0 mm 1 mps 759 mmHg 49%
    03:00 +26°C° 0 mm 1 mps 758 mmHg 49%
    04:00 +26°C° 0 mm 1 mps 758 mmHg 49%
    05:00 +27°C° 0 mm 1 mps 758 mmHg 46%
    06:00 +29°C° 0 mm 1 mps 759 mmHg 43%
    07:00 +30°C° 0 mm 1 mps 759 mmHg 40%
    08:00 +32°C° 0 mm 1 mps 759 mmHg 35%
    09:00 +36°C° 0 mm 2 mps 759 mmHg 30%
    10:00 +38°C° 0 mm 3 mps 759 mmHg 25%
    11:00 +39°C° 0 mm 3 mps 759 mmHg 24%
    12:00 +39°C° 0 mm 3 mps 759 mmHg 24%
    13:00 +40°C° 0 mm 3 mps 759 mmHg 24%
    14:00 +40°C° 0 mm 3 mps 759 mmHg 24%
    15:00 +39°C° 0 mm 3 mps 759 mmHg 25%
    16:00 +39°C° 0 mm 3 mps 758 mmHg 26%
    17:00 +38°C° 0 mm 3 mps 758 mmHg 31%
    18:00 +36°C° 0 mm 3 mps 758 mmHg 35%
    19:00 +34°C° 0 mm 3 mps 758 mmHg 39%
    20:00 +32°C° 0 mm 2 mps 758 mmHg 43%
    21:00 +30°C° 0 mm 2 mps 758 mmHg 47%
    22:00 +29°C° 0 mm 2 mps 758 mmHg 51%
    23:00 +28°C° 0 mm 2 mps 758 mmHg 53%

    21 July, Saturday

    Time Temperature Precipitation Wind Pressure Humidity
    00:00 +28°C° 0 mm 2 mps 758 mmHg 56%
    01:00 +27°C° 0 mm 2 mps 758 mmHg 58%
    02:00 +27°C° 0 mm 2 mps 757 mmHg 59%
    03:00 +27°C° 0 mm 2 mps 757 mmHg 61%
    04:00 +26°C° 0 mm 2 mps 757 mmHg 62%
    05:00 +27°C° 0 mm 2 mps 757 mmHg 58%
    06:00 +28°C° 0 mm 2 mps 757 mmHg 55%
    07:00 +29°C° 0 mm 2 mps 757 mmHg 51%
    08:00 +32°C° 0 mm 2 mps 758 mmHg 45%
    09:00 +35°C° 0 mm 2 mps 758 mmHg 38%
    10:00 +37°C° 0 mm 2 mps 758 mmHg 31%
    11:00 +38°C° 0 mm 3 mps 758 mmHg 29%
    12:00 +39°C° 0 mm 3 mps 758 mmHg 28%
    13:00 +41°C° 0 mm 4 mps 758 mmHg 26%
    14:00 +40°C° 0 mm 4 mps 758 mmHg 27%
    15:00 +40°C° 0 mm 4 mps 758 mmHg 28%
    16:00 +40°C° 0 mm 4 mps 758 mmHg 30%
    17:00 +37°C° 0 mm 4 mps 758 mmHg 35%
    18:00 +35°C° 0 mm 4 mps 758 mmHg 41%
    19:00 +33°C° 0 mm 4 mps 758 mmHg 46%
    20:00 +30°C° 0 mm 4 mps 758 mmHg 53%
    21:00 +29°C° 0 mm 3 mps 759 mmHg 60%
    22:00 +27°C° 0 mm 3 mps 759 mmHg 66%
    23:00 +26°C° 0 mm 3 mps 759 mmHg 68%

    22 July, Sunday

    Time Temperature Precipitation Wind Pressure Humidity
    00:00 +26°C° 0 mm 3 mps 759 mmHg 70%
    01:00 +25°C° 0 mm 4 mps 758 mmHg 72%
    02:00 +25°C° 0 mm 4 mps 758 mmHg 74%
    03:00 +23°C° 0 mm 4 mps 758 mmHg 76%
    04:00 +23°C° 0 mm 4 mps 758 mmHg 78%
    05:00 +25°C° 0 mm 4 mps 758 mmHg 76%
    06:00 +26°C° 0 mm 4 mps 758 mmHg 73%
    07:00 +26°C° 0 mm 4 mps 758 mmHg 71%
    08:00 +28°C° 0 mm 5 mps 758 mmHg 60%
    09:00 +30°C° 0 mm 6 mps 758 mmHg 49%
    10:00 +33°C° 0 mm 6 mps 758 mmHg 38%
    11:00 +33°C° 0 mm 7 mps 758 mmHg 36%
    12:00 +34°C° 0 mm 7 mps 758 mmHg 34%
    13:00 +34°C° 0 mm 8 mps 758 mmHg 32%
    14:00 +34°C° 0 mm 8 mps 758 mmHg 33%
    15:00 +33°C° 0 mm 8 mps 758 mmHg 35%
    16:00 +33°C° 0 mm 8 mps 757 mmHg 36%
    17:00 +31°C° 0 mm 8 mps 757 mmHg 42%
    18:00 +29°C° 0 mm 7 mps 757 mmHg 48%
    19:00 +28°C° 0 mm 7 mps 758 mmHg 54%
    20:00 +26°C° 0 mm 6 mps 758 mmHg 61%
    21:00 +24°C° 0 mm 6 mps 758 mmHg 68%
    22:00 +23°C° 0 mm 5 mps 758 mmHg 74%
    23:00 +23°C° 0 mm 5 mps 758 mmHg 76%
    Show more